Weather in Orange

France     44°08′10″N   4°48′11″E
temp.,
°C
wind,
m/s
gust,
m/s
humid.,
%
clouds,
%
prec.,
mm/h
press.,
hPa
HPBL,
m
11 april, sun
sun1123:00+9nw1178100 0.4 101635
02:00+9n0081100 0.4 101530
05:00+9nnw228990 0.0 101363
08:00+10wnw118519 0.0 101355
11:00+15s356168 0.0 1014824
14:00+14sw5666100 0.0 1015770
17:00+13sw2479100 0.1 1014443
20:00+12s3890100 1.1 1015552
12 april, mon
mon1223:00+12wsw1597100 11.8 1016391
02:00+5n71591100 28.9 1020652
05:00+5n6158791 5.0 1021720
08:00+5n9168560 5.0 10211062
11:00+8n1218716 0.0 10221416
14:00+11n12185030 0.0 10211990
17:00+13nnw1218451 0.0 10202342
20:00+9n1322430 0.0 10211766
13 april, tue
tue1323:00+7n1322480 0.0 10231576
02:00+7n1321540 0.0 10231469
05:00+6n1321580 0.0 10231361
08:00+5n1322603 0.0 10241326
11:00+8n1422574 0.0 10241492
14:00+12n1319420 0.0 10241569
17:00+12n1217401 0.0 10231584
20:00+10n1118440 0.0 10231232
14 april, wed
wed1423:00+8n1017550 0.0 1024996
02:00+6n8156543 0.0 1024716
05:00+4n815725 0.0 1024623
08:00+3n714738 0.0 1024639
11:00+8n9115697 0.0 1024839
14:00+12n9114378 0.0 10221203
17:00+12n912410 0.0 10211368
20:00+11n613460 0.0 1020762
15 april, thu
thu1523:00+9n614440 0.0 1021699
02:00+6n614590 0.0 1022568
05:00+4n614680 0.0 1021522
08:00+4n614710 0.0 1022566
11:00+8n810541 0.0 1022796
14:00+12n78400 0.0 10211311
17:00+14n89360 0.0 10181419
20:00+11n612419 0.0 1018566